User: anonymous   Login
Location: Vancouver
(49.2500°N, 123.1330°W)
Time: 22:55:37
(UTC-07:00)
Language:

BREEZE-M DEB (TANK) - Orbit

View from above orbital plane
View from above orbital plane
View from above satellite
View from above satellite

Ground track
Ground track

The orbit data is extracted from the following two-line orbital elements,

1 27821U 03024B   16121.55430582 +.00008875 +00000-0 +70782-3 0  9997
2 27821 049.5732 284.3470 4969044 075.6100 332.9241 05.72494436256747
Epoch (UTC): 30 April 2016 13:18:12
Eccentricity: 0.4969044
inclination: 49.5732°
perigee height: 262 km
apogee height: 13380 km
right ascension of ascending node: 284.3470°
argument of perigee: 75.6100°
revolutions per day: 5.72494436
mean anomaly at epoch: 332.9241°
orbit number at epoch: 25674

The dashed part of the orbit path shows where the satellite is in the earth's shadow,  

DLR